{"data":{"norad_id":59330,"epoch":"2026-09-21T02:39:50.739552Z","epoch_age_seconds":109460,"freshness":"FRESH","line1":"1 59330U 24057L   26264.11100393  .00000097  00000+0  13056-4 0  9990","line2":"2 59330  43.0029 163.6573 0001175 272.9925  87.0793 15.27572301139720","mean_motion":15.27572301,"eccentricity":0.0001175,"inclination_deg":43.0029,"raan_deg":163.6573,"arg_perigee_deg":272.9925,"mean_anomaly_deg":87.0793,"bstar":1.3056e-5,"rev_number":13972,"period_min":94.267223820262,"perigee_km":482.26595763709,"apogee_km":483.87834178727,"semimajor_km":6861.2091497122,"source":"CELESTRAK","updated_at":"2026-09-22T09:00:48.899867Z"}}